Location: The Saddle
(36.8333°N, 80.3417°W)
Time: 20:11:27
(UTC-05:00)

Tiros 1 despin weight - All Passes

Search period start: 22 January 2022 00:00
Search period end: 01 February 2022 00:00
Orbit: 592 x 641 km, 48.2° (Epoch: 22 January)

Date Brightness Start Highest point End Pass type
(mag) Time Alt. Az. Time Alt. Az. Time Alt. Az.
22 Jan - 01:20:25 10° WNW 01:24:45 38° SW 01:29:03 10° SSE night (unlit)
22 Jan - 17:06:13 10° SSW 17:10:31 45° SE 17:14:55 10° ENE daylight
22 Jan - 18:47:49 10° W 18:52:07 39° NNW 18:56:30 10° NE visible
22 Jan - 20:31:08 10° NW 20:34:36 20° N 20:38:06 10° NE visible
22 Jan - 22:13:26 10° NW 22:17:19 25° NNE 22:21:14 10° ENE night (unlit)
22 Jan - 23:54:44 10° NW 23:59:26 77° NE 00:04:06 10° ESE night (unlit)
23 Jan - 01:37:16 10° W 01:40:34 19° SW 01:43:50 10° S night (unlit)
23 Jan - 15:43:10 10° SSE 15:45:32 14° SE 15:47:56 10° E daylight
23 Jan - 17:21:58 10° SW 17:26:30 88° SE 17:31:09 10° NE daylight
23 Jan - 19:04:32 10° WNW 19:08:29 27° NNW 19:12:28 10° NE visible
23 Jan - 20:47:44 10° NW 20:51:10 20° N 20:54:36 10° NE visible
23 Jan - 22:29:26 10° NW 22:33:44 35° NNE 22:38:01 10° E night (unlit)
24 Jan - 00:10:52 10° WNW 00:15:28 57° SW 00:20:03 10° SE night (unlit)
24 Jan - 15:57:24 10° SSW 16:01:17 29° SE 16:05:14 10° ENE daylight
24 Jan - 17:38:12 10° WSW 17:42:38 52° NNW 17:47:10 10° NE daylight
24 Jan - 19:21:22 10° WNW 19:24:57 22° N 19:28:34 10° NE visible
24 Jan - 21:04:02 10° NW 21:07:42 22° N 21:11:22 10° ENE visible
24 Jan - 22:45:24 10° NW 22:49:59 55° NNE 22:54:35 10° ESE night (unlit)
25 Jan - 00:27:19 10° WNW 00:31:21 29° SW 00:35:22 10° SSE night (unlit)
25 Jan - 16:12:45 10° SW 16:17:10 59° SE 16:21:41 10° ENE daylight
25 Jan - 17:54:46 10° W 17:58:55 33° NNW 18:03:07 10° NE daylight
25 Jan - 19:38:06 10° NW 19:41:29 20° N 19:44:54 10° NE visible
25 Jan - 21:20:08 10° NW 21:24:09 28° NNE 21:28:12 10° ENE visible
25 Jan - 23:01:25 10° NW 23:06:07 85° SW 23:10:48 10° SE night (unlit)
26 Jan - 00:44:38 10° W 00:47:07 14° SW 00:49:35 10° SSW night (unlit)
26 Jan - 14:48:58 10° S 14:52:06 19° SE 14:55:16 10° E daylight
26 Jan - 16:28:42 10° WSW 16:33:12 74° NNW 16:37:48 10° NE daylight
26 Jan - 18:11:34 10° WNW 18:15:19 24° NNW 18:19:07 10° NE visible
26 Jan - 19:54:34 10° NW 19:58:02 20° N 20:01:31 10° NE visible
26 Jan - 21:36:05 10° NW 21:40:30 40° NNE 21:44:55 10° E visible
26 Jan - 23:17:39 10° WNW 23:22:05 44° SW 23:26:31 10° SSE night (unlit)
27 Jan - 15:03:45 10° SSW 15:07:53 38° SE 15:12:06 10° ENE daylight
27 Jan - 16:45:05 10° W 16:49:23 43° NNW 16:53:47 10° NE daylight
27 Jan - 18:28:22 10° NW 18:31:49 20° N 18:35:17 10° NE visible
27 Jan - 20:10:46 10° NW 20:14:32 24° NNE 20:18:19 10° ENE visible
27 Jan - 21:52:03 10° NW 21:56:42 68° NNE 22:01:22 10° ESE night (unlit)
27 Jan - 23:34:19 10° W 23:37:55 22° SW 23:41:31 10° S night (unlit)
28 Jan - 13:41:25 10° SSE 13:42:57 12° SE 13:44:30 10° ESE daylight
28 Jan - 15:19:22 10° SW 15:23:50 77° SE 15:28:23 10° ENE daylight
28 Jan - 17:01:45 10° W 17:05:43 29° NNW 17:09:44 10° NE daylight
28 Jan - 18:45:00 10° NW 18:48:22 19° N 18:51:44 10° NE visible
28 Jan - 20:26:47 10° NW 20:30:57 32° NNE 20:35:08 10° E visible
28 Jan - 22:08:08 10° WNW 22:12:45 67° SW 22:17:24 10° SE night (unlit)
28 Jan - 23:52:56 10° WSW 23:53:37 10° SW 23:54:19 10° SW night (unlit)
29 Jan - 13:55:03 10° S 13:58:40 25° SE 14:02:20 10° E daylight
29 Jan - 15:35:30 10° WSW 15:39:55 59° NNW 15:44:26 10° NE daylight
29 Jan - 17:18:33 10° WNW 17:22:09 22° NNW 17:25:47 10° NE daylight
29 Jan - 19:01:21 10° NW 19:04:53 21° N 19:08:26 10° ENE visible
29 Jan - 20:42:43 10° NW 20:47:14 49° NNE 20:51:46 10° ESE visible
29 Jan - 22:24:28 10° WNW 22:28:41 33° SW 22:32:52 10° SSE night (unlit)
30 Jan - 14:10:13 10° SW 14:14:30 50° SE 14:18:53 10° ENE daylight
30 Jan - 15:52:00 10° W 15:56:09 36° NNW 16:00:23 10° NE daylight
30 Jan - 17:35:19 10° NW 17:38:40 20° N 17:42:03 10° NE daylight
30 Jan - 19:17:27 10° NW 19:21:21 26° NNE 19:25:16 10° ENE visible
30 Jan - 20:58:43 10° NW 21:03:23 84° NE 21:08:03 10° SE visible
30 Jan - 22:41:29 10° W 22:44:27 17° SW 22:47:25 10° S night (unlit)
31 Jan - 12:46:50 10° SSE 12:49:29 16° SE 12:52:10 10° E daylight
31 Jan - 14:26:02 10° WSW 14:30:30 84° NW 14:35:02 10° NE daylight
31 Jan - 16:08:45 10° WNW 16:12:31 26° NNW 16:16:21 10° NE daylight
31 Jan - 17:51:50 10° NW 17:55:12 20° N 17:58:35 10° NE daylight
31 Jan - 19:33:25 10° NW 19:37:43 37° NNE 19:42:01 10° E visible
31 Jan - 21:14:52 10° WNW 21:19:22 51° SW 21:23:53 10° SE visible
